TimeEDT,TemperatureF,Dew PointF,Humidity,Sea Level PressureIn,VisibilityMPH,Wind Direction,Wind SpeedMPH,Gust SpeedMPH,PrecipitationIn,Events,Conditions,WindDirDegrees,DateUTC
12:51 AM,52.0,48.9,89,29.97,-9999.0,Calm,Calm,-,N/A,,Unknown,0,2013-07-11 04:51:00
1:51 AM,53.1,50.0,89,29.98,-9999.0,WSW,3.5,-,N/A,,Unknown,250,2013-07-11 05:51:00
2:51 AM,53.1,50.0,89,29.99,-9999.0,WSW,4.6,-,N/A,,Unknown,250,2013-07-11 06:51:00
3:51 AM,53.1,50.0,89,30.01,-9999.0,WSW,5.8,-,N/A,,Unknown,250,2013-07-11 07:51:00
4:51 AM,52.0,50.0,93,30.03,-9999.0,WSW,6.9,-,N/A,,Unknown,250,2013-07-11 08:51:00
5:51 AM,51.1,50.0,96,30.05,-9999.0,WSW,5.8,-,N/A,,Unknown,240,2013-07-11 09:51:00
6:51 AM,52.0,50.0,93,30.06,-9999.0,WSW,3.5,-,N/A,,Unknown,250,2013-07-11 10:51:00
7:51 AM,60.1,52.0,75,30.07,-9999.0,Calm,Calm,-,N/A,,Unknown,0,2013-07-11 11:51:00
8:51 AM,55.9,48.9,77,30.10,-9999.0,Calm,Calm,-,N/A,,Unknown,0,2013-07-11 12:51:00
9:51 AM,64.0,52.0,65,30.09,-9999.0,Variable,4.6,-,N/A,,Unknown,0,2013-07-11 13:51:00
10:51 AM,66.9,52.0,59,30.09,-9999.0,SW,8.1,-,N/A,,Unknown,220,2013-07-11 14:51:00
11:51 AM,68.0,53.1,59,30.09,-9999.0,SW,8.1,16.1,N/A,,Unknown,230,2013-07-11 15:51:00
12:51 PM,59.0,51.1,75,30.10,-9999.0,North,3.5,-,N/A,,Unknown,360,2013-07-11 16:51:00
1:51 PM,57.9,52.0,81,30.09,-9999.0,North,6.9,-,N/A,,Unknown,360,2013-07-11 17:51:00
2:51 PM,57.0,52.0,83,30.09,-9999.0,Calm,Calm,-,N/A,,Unknown,0,2013-07-11 18:51:00
3:51 PM,57.0,51.1,81,30.08,-9999.0,Calm,Calm,-,N/A,,Unknown,0,2013-07-11 19:51:00
4:51 PM,62.1,54.0,75,30.07,-9999.0,ENE,3.5,-,N/A,,Unknown,70,2013-07-11 20:51:00
5:51 PM,62.1,53.1,72,30.06,-9999.0,Calm,Calm,-,N/A,,Unknown,0,2013-07-11 21:51:00
6:51 PM,66.0,54.0,65,30.04,-9999.0,Calm,Calm,-,N/A,,Unknown,0,2013-07-11 22:51:00
7:51 PM,68.0,48.0,49,30.02,-9999.0,Variable,5.8,-,N/A,,Unknown,0,2013-07-11 23:51:00
8:51 PM,64.9,48.0,54,30.01,-9999.0,SW,8.1,16.1,N/A,,Unknown,230,2013-07-12 00:51:00
9:51 PM,63.0,50.0,63,30.01,-9999.0,WSW,8.1,-,N/A,,Unknown,240,2013-07-12 01:51:00
10:51 PM,63.0,48.9,60,30.00,-9999.0,WSW,9.2,-,N/A,,Unknown,240,2013-07-12 02:51:00
11:51 PM,63.0,48.0,58,30.01,-9999.0,WSW,9.2,-,N/A,,Unknown,240,2013-07-12 03:51:00